Time,TemperatureF,DewpointF,PressureIn,WindDirection,WindDirectionDegrees,WindSpeedMPH,WindSpeedGustMPH,Humidity,HourlyPrecipIn,Conditions,Clouds,dailyrainin,SoftwareType,DateUTC
2013-01-04 00:00:00,16.2,11.0,30.29,SSE,159,0.0,0.0,80,0.00,,---,0.00,VWS V14.00,2013-01-04 08:00:00,
2013-01-04 00:09:00,16.4,11.5,30.28,SSE,159,0.0,0.0,80,0.00,,---,0.00,VWS V14.00,2013-01-04 08:09:00,
2013-01-04 00:14:00,16.7,11.8,30.28,SSE,159,0.0,0.0,80,0.00,,---,0.00,VWS V14.00,2013-01-04 08:14:00,
2013-01-04 00:19:00,16.7,11.8,30.28,SSE,159,0.0,0.0,80,0.00,,---,0.00,VWS V14.00,2013-01-04 08:19:00,
2013-01-04 00:24:00,15.8,10.6,30.28,SSE,159,0.0,0.0,80,0.00,,---,0.00,VWS V14.00,2013-01-04 08:24:00,
2013-01-04 00:29:00,15.1,9.9,30.28,SSE,159,0.0,0.0,80,0.00,,---,0.00,VWS V14.00,2013-01-04 08:29:00,
2013-01-04 00:34:00,14.1,8.7,30.28,SSE,159,0.0,0.0,78,0.00,,---,0.00,VWS V14.00,2013-01-04 08:34:00,
2013-01-04 00:39:00,13.9,9.0,30.28,SSE,159,0.0,0.0,80,0.00,,---,0.00,VWS V14.00,2013-01-04 08:39:00,
2013-01-04 00:44:00,14.3,9.7,30.28,SSE,159,0.0,0.0,82,0.00,,---,0.00,VWS V14.00,2013-01-04 08:44:00,
2013-01-04 00:49:00,14.6,10.0,30.28,SSE,159,0.0,0.0,82,0.00,,---,0.00,VWS V14.00,2013-01-04 08:49:00,
2013-01-04 00:54:00,14.8,9.9,30.28,SSE,159,0.0,0.0,80,0.00,,---,0.00,VWS V14.00,2013-01-04 08:54:00,
2013-01-04 00:59:00,15.5,10.9,30.28,SSE,159,0.0,0.0,82,0.00,,---,0.00,VWS V14.00,2013-01-04 08:59:00,
2013-01-04 01:04:00,16.3,11.6,30.28,SSE,159,0.0,0.0,82,0.00,,---,0.00,VWS V14.00,2013-01-04 09:04:00,
2013-01-04 01:09:00,16.6,11.7,30.28,SSE,159,0.0,0.0,80,0.00,,---,0.00,VWS V14.00,2013-01-04 09:09:00,
2013-01-04 01:14:00,16.6,11.7,30.28,SSE,159,0.0,0.0,80,0.00,,---,0.00,VWS V14.00,2013-01-04 09:14:00,
2013-01-04 01:19:00,16.4,11.5,30.28,SSE,159,0.0,0.0,80,0.00,,---,0.00,VWS V14.00,2013-01-04 09:19:00,
2013-01-04 01:24:00,16.2,11.3,30.28,SSE,159,0.0,0.0,80,0.00,,---,0.00,VWS V14.00,2013-01-04 09:24:00,
2013-01-04 01:29:00,15.7,10.8,30.28,SSE,159,0.0,0.0,80,0.00,,---,0.00,VWS V14.00,2013-01-04 09:29:00,
2013-01-04 01:34:00,15.2,10.3,30.28,SSE,159,0.0,0.0,80,0.00,,---,0.00,VWS V14.00,2013-01-04 09:34:00,
2013-01-04 01:39:00,14.7,9.8,30.28,SSE,159,0.0,0.0,80,0.00,,---,0.00,VWS V14.00,2013-01-04 09:39:00,
2013-01-04 01:44:00,14.0,9.1,30.28,SSE,159,0.0,0.0,80,0.00,,---,0.00,VWS V14.00,2013-01-04 09:44:00,
2013-01-04 01:49:00,13.5,8.6,30.28,SSE,159,0.0,0.0,80,0.00,,---,0.00,VWS V14.00,2013-01-04 09:49:00,
2013-01-04 01:54:00,13.4,8.5,30.28,SSE,159,0.0,0.0,80,0.00,,---,0.00,VWS V14.00,2013-01-04 09:54:00,
2013-01-04 01:59:00,13.4,8.8,30.28,SSE,159,0.0,0.0,82,0.00,,---,0.00,VWS V14.00,2013-01-04 09:59:00,
2013-01-04 02:04:00,13.6,9.3,30.28,SSE,159,0.0,0.0,82,0.00,,---,0.00,VWS V14.00,2013-01-04 10:04:00,
2013-01-04 02:09:00,13.6,9.3,30.28,SSE,159,0.0,0.0,82,0.00,,---,0.00,VWS V14.00,2013-01-04 10:09:00,
2013-01-04 02:14:00,13.5,9.2,30.28,SSE,159,0.0,0.0,82,0.00,,---,0.00,VWS V14.00,2013-01-04 10:14:00,
2013-01-04 02:19:00,13.1,8.5,30.28,SSE,159,0.0,0.0,82,0.00,,---,0.00,VWS V14.00,2013-01-04 10:19:00,
2013-01-04 02:24:00,12.8,8.2,30.28,SSE,159,0.0,0.0,82,0.00,,---,0.00,VWS V14.00,2013-01-04 10:24:00,
2013-01-04 02:29:00,13.0,8.4,30.28,SSE,159,0.0,0.0,82,0.00,,---,0.00,VWS V14.00,2013-01-04 10:29:00,
2013-01-04 02:34:00,12.7,8.1,30.28,SSE,159,0.0,0.0,82,0.00,,---,0.00,VWS V14.00,2013-01-04 10:34:00,
2013-01-04 02:39:00,12.6,8.0,30.28,SSE,159,0.0,0.0,82,0.00,,---,0.00,VWS V14.00,2013-01-04 10:39:00,
2013-01-04 02:44:00,12.5,7.9,30.28,SSE,159,0.0,0.0,82,0.00,,---,0.00,VWS V14.00,2013-01-04 10:44:00,
2013-01-04 02:49:00,12.5,7.9,30.28,SSE,159,0.0,0.0,82,0.00,,---,0.00,VWS V14.00,2013-01-04 10:49:00,
2013-01-04 02:54:00,12.5,7.9,30.28,SSE,159,0.0,0.0,82,0.00,,---,0.00,VWS V14.00,2013-01-04 10:54:00,
2013-01-04 02:59:00,12.5,7.9,30.28,SSE,159,0.0,0.0,82,0.00,,---,0.00,VWS V14.00,2013-01-04 10:59:00,
2013-01-04 03:04:00,12.5,7.9,30.28,SSE,159,0.0,0.0,82,0.00,,---,0.00,VWS V14.00,2013-01-04 11:04:00,
2013-01-04 03:09:00,12.5,7.9,30.28,SSE,159,0.0,0.0,82,0.00,,---,0.00,VWS V14.00,2013-01-04 11:09:00,
2013-01-04 03:14:00,12.5,7.9,30.28,SSE,159,0.0,0.0,82,0.00,,---,0.00,VWS V14.00,2013-01-04 11:14:00,
2013-01-04 03:19:00,12.5,7.9,30.28,SSE,159,0.0,0.0,82,0.00,,---,0.00,VWS V14.00,2013-01-04 11:19:00,
2013-01-04 03:24:00,12.5,7.9,30.28,SSE,159,0.0,0.0,82,0.00,,---,0.00,VWS V14.00,2013-01-04 11:24:00,
2013-01-04 03:29:00,12.5,7.9,30.28,SSE,159,0.0,0.0,82,0.00,,---,0.00,VWS V14.00,2013-01-04 11:29:00,
2013-01-04 03:34:00,12.5,7.9,30.28,SSE,159,0.0,0.0,82,0.00,,---,0.00,VWS V14.00,2013-01-04 11:34:00,
2013-01-04 03:44:00,12.5,7.9,30.28,SSE,159,0.0,0.0,82,0.00,,---,0.00,VWS V14.00,2013-01-04 11:44:00,
2013-01-04 03:49:00,12.5,7.9,30.28,SSE,159,0.0,0.0,82,0.00,,---,0.00,VWS V14.00,2013-01-04 11:49:00,
2013-01-04 03:54:00,12.5,7.9,30.28,SSE,159,0.0,0.0,82,0.00,,---,0.00,VWS V14.00,2013-01-04 11:54:00,
2013-01-04 03:59:00,12.5,7.9,30.28,SSE,159,0.0,0.0,82,0.00,,---,0.00,VWS V14.00,2013-01-04 11:59:00,
2013-01-04 04:04:00,12.5,7.9,30.27,SSE,159,0.0,0.0,82,0.00,,---,0.00,VWS V14.00,2013-01-04 12:04:00,
2013-01-04 04:09:00,12.5,7.9,30.27,SSE,159,0.0,0.0,82,0.00,,---,0.00,VWS V14.00,2013-01-04 12:09:00,
2013-01-04 04:14:00,12.5,7.9,30.28,SSE,159,0.0,0.0,82,0.00,,---,0.00,VWS V14.00,2013-01-04 12:14:00,
2013-01-04 04:19:00,12.5,7.9,30.27,SSE,159,0.0,0.0,82,0.00,,---,0.00,VWS V14.00,2013-01-04 12:19:00,
2013-01-04 04:24:00,12.5,7.9,30.27,SSE,159,0.0,0.0,82,0.00,,---,0.00,VWS V14.00,2013-01-04 12:24:00,
2013-01-04 04:34:00,12.5,7.9,30.27,SSE,159,0.0,0.0,82,0.00,,---,0.00,VWS V14.00,2013-01-04 12:34:00,
2013-01-04 04:39:00,12.5,7.9,30.27,SSE,159,0.0,0.0,82,0.00,,---,0.00,VWS V14.00,2013-01-04 12:39:00,
2013-01-04 04:44:00,12.5,7.9,30.27,SSE,159,0.0,0.0,82,0.00,,---,0.00,VWS V14.00,2013-01-04 12:44:00,
2013-01-04 04:49:00,12.5,7.9,30.27,SSE,159,0.0,0.0,82,0.00,,---,0.00,VWS V14.00,2013-01-04 12:49:00,
2013-01-04 04:54:00,12.5,7.9,30.27,SSE,159,0.0,0.0,82,0.00,,---,0.00,VWS V14.00,2013-01-04 12:54:00,
2013-01-04 04:59:00,12.5,7.9,30.27,SSE,159,0.0,0.0,82,0.00,,---,0.00,VWS V14.00,2013-01-04 12:59:00,
2013-01-04 05:04:00,12.5,7.9,30.27,SSE,159,0.0,0.0,82,0.00,,---,0.00,VWS V14.00,2013-01-04 13:04:00,
2013-01-04 05:09:00,12.5,7.9,30.27,SSE,159,0.0,0.0,82,0.00,,---,0.00,VWS V14.00,2013-01-04 13:09:00,
2013-01-04 05:14:00,12.5,7.9,30.27,SSE,159,0.0,0.0,82,0.00,,---,0.00,VWS V14.00,2013-01-04 13:14:00,
2013-01-04 05:19:00,12.5,7.9,30.27,SSE,159,0.0,0.0,82,0.00,,---,0.00,VWS V14.00,2013-01-04 13:19:00,
2013-01-04 05:24:00,12.5,7.9,30.27,SSE,159,0.0,0.0,82,0.00,,---,0.00,VWS V14.00,2013-01-04 13:24:00,
2013-01-04 05:29:00,12.5,7.9,30.28,SSE,159,0.0,0.0,82,0.00,,---,0.00,VWS V14.00,2013-01-04 13:29:00,
2013-01-04 05:34:00,12.5,7.9,30.28,SSE,159,0.0,0.0,82,0.00,,---,0.00,VWS V14.00,2013-01-04 13:34:00,
2013-01-04 05:40:00,12.5,7.9,30.28,SSE,159,0.0,0.0,82,0.00,,---,0.00,VWS V14.00,2013-01-04 13:40:00,
2013-01-04 05:45:00,12.5,7.9,30.27,SSE,159,0.0,0.0,82,0.00,,---,0.00,VWS V14.00,2013-01-04 13:45:00,
2013-01-04 05:54:00,12.5,7.9,30.28,SSE,159,0.0,0.0,82,0.00,,---,0.00,VWS V14.00,2013-01-04 13:54:00,
2013-01-04 05:59:00,12.5,7.9,30.28,SSE,159,0.0,0.0,82,0.00,,---,0.00,VWS V14.00,2013-01-04 13:59:00,
2013-01-04 06:04:00,12.5,7.9,30.28,SSE,159,0.0,0.0,82,0.00,,---,0.00,VWS V14.00,2013-01-04 14:04:00,
2013-01-04 06:09:00,12.5,7.9,30.28,SSE,159,0.0,0.0,82,0.00,,---,0.00,VWS V14.00,2013-01-04 14:09:00,
2013-01-04 06:14:00,12.5,7.9,30.28,SSE,159,0.0,0.0,82,0.00,,---,0.00,VWS V14.00,2013-01-04 14:14:00,
2013-01-04 06:19:00,12.5,7.9,30.28,SSE,159,0.0,0.0,82,0.00,,---,0.00,VWS V14.00,2013-01-04 14:19:00,
2013-01-04 06:24:00,12.5,7.9,30.28,SSE,159,0.0,0.0,82,0.00,,---,0.00,VWS V14.00,2013-01-04 14:24:00,
2013-01-04 06:29:00,12.5,7.9,30.28,SSE,159,0.0,0.0,82,0.00,,---,0.00,VWS V14.00,2013-01-04 14:29:00,
2013-01-04 06:34:00,12.5,7.9,30.28,SSE,159,0.0,0.0,82,0.00,,---,0.00,VWS V14.00,2013-01-04 14:34:00,
2013-01-04 06:44:00,12.5,7.9,30.28,SSE,159,0.0,0.0,82,0.00,,---,0.00,VWS V14.00,2013-01-04 14:44:00,
2013-01-04 06:49:00,12.5,7.9,30.28,SSE,159,0.0,0.0,82,0.00,,---,0.00,VWS V14.00,2013-01-04 14:49:00,
2013-01-04 06:54:00,12.5,7.9,30.29,SSE,159,0.0,0.0,82,0.00,,---,0.00,VWS V14.00,2013-01-04 14:54:00,
2013-01-04 06:59:00,12.5,7.9,30.28,SSE,159,0.0,0.0,82,0.00,,---,0.00,VWS V14.00,2013-01-04 14:59:00,
2013-01-04 07:04:00,12.5,7.9,30.28,SSE,159,0.0,0.0,82,0.00,,---,0.00,VWS V14.00,2013-01-04 15:04:00,
2013-01-04 07:14:00,12.5,7.9,30.29,SSE,159,0.0,0.0,82,0.00,,---,0.00,VWS V14.00,2013-01-04 15:14:00,
2013-01-04 07:19:00,12.5,7.9,30.29,SSE,159,0.0,0.0,82,0.00,,---,0.00,VWS V14.00,2013-01-04 15:19:00,
2013-01-04 07:24:00,12.5,7.9,30.29,SSE,159,0.0,0.0,82,0.00,,---,0.00,VWS V14.00,2013-01-04 15:24:00,
2013-01-04 07:29:00,12.5,7.9,30.29,SSE,159,0.0,0.0,82,0.00,,---,0.00,VWS V14.00,2013-01-04 15:29:00,
2013-01-04 07:34:00,12.5,7.9,30.29,SSE,159,0.0,0.0,82,0.00,,---,0.00,VWS V14.00,2013-01-04 15:34:00,
2013-01-04 07:44:00,12.5,7.9,30.29,SSE,159,0.0,0.0,82,0.00,,---,0.00,VWS V14.00,2013-01-04 15:44:00,
2013-01-04 07:49:00,12.5,7.9,30.29,SSE,159,0.0,0.0,82,0.00,,---,0.00,VWS V14.00,2013-01-04 15:49:00,
2013-01-04 07:54:00,12.5,7.9,30.29,SSE,159,0.0,0.0,82,0.00,,---,0.00,VWS V14.00,2013-01-04 15:54:00,
2013-01-04 07:59:00,13.6,9.5,30.29,SSE,159,0.0,0.0,84,0.00,,---,0.00,VWS V14.00,2013-01-04 15:59:00,
2013-01-04 08:04:00,14.0,9.9,30.29,SSE,159,0.0,0.0,84,0.00,,---,0.00,VWS V14.00,2013-01-04 16:04:00,
2013-01-04 08:09:00,14.5,10.1,30.29,SSE,159,0.0,0.0,82,0.00,,---,0.00,VWS V14.00,2013-01-04 16:09:00,
2013-01-04 08:14:00,15.0,10.6,30.30,SSE,159,0.0,0.0,82,0.00,,---,0.00,VWS V14.00,2013-01-04 16:14:00,
2013-01-04 08:19:00,15.5,10.9,30.30,SSE,159,0.0,0.0,82,0.00,,---,0.00,VWS V14.00,2013-01-04 16:19:00,
2013-01-04 08:24:00,15.7,11.1,30.30,SSE,159,0.0,0.0,82,0.00,,---,0.00,VWS V14.00,2013-01-04 16:24:00,
2013-01-04 08:29:00,16.2,11.3,30.30,SSE,159,0.0,0.0,80,0.00,,---,0.00,VWS V14.00,2013-01-04 16:29:00,
2013-01-04 08:34:00,17.0,12.1,30.30,SSE,159,0.0,0.0,80,0.00,,---,0.00,VWS V14.00,2013-01-04 16:34:00,
2013-01-04 08:39:00,17.8,12.6,30.30,SSE,159,0.0,0.0,80,0.00,,---,0.00,VWS V14.00,2013-01-04 16:39:00,
2013-01-04 08:44:00,17.7,11.9,30.30,SSE,159,0.0,0.0,78,0.00,,---,0.00,VWS V14.00,2013-01-04 16:44:00,
2013-01-04 08:49:00,18.1,12.3,30.30,SSE,159,0.0,0.0,78,0.00,,---,0.00,VWS V14.00,2013-01-04 16:49:00,
2013-01-04 08:55:00,18.4,12.3,30.30,SSE,159,0.0,0.0,76,0.00,,---,0.00,VWS V14.00,2013-01-04 16:55:00,
2013-01-04 09:04:00,19.5,13.3,30.30,SSE,159,0.0,0.0,76,0.00,,---,0.00,VWS V14.00,2013-01-04 17:04:00,
2013-01-04 09:09:00,20.4,13.6,30.31,SSE,159,0.0,0.0,74,0.00,,---,0.00,VWS V14.00,2013-01-04 17:09:00,
2013-01-04 09:14:00,20.3,13.2,30.31,SSE,159,0.0,0.0,74,0.00,,---,0.00,VWS V14.00,2013-01-04 17:14:00,
2013-01-04 09:19:00,19.7,12.3,30.31,SSE,159,0.0,0.0,72,0.00,,---,0.00,VWS V14.00,2013-01-04 17:19:00,
2013-01-04 09:25:00,19.0,11.9,30.31,SSE,159,0.0,0.0,74,0.00,,---,0.00,VWS V14.00,2013-01-04 17:25:00,
2013-01-04 09:34:00,19.4,12.6,30.31,SSE,159,0.0,0.0,74,0.00,,---,0.00,VWS V14.00,2013-01-04 17:34:00,
2013-01-04 09:39:00,19.1,12.3,30.32,SSE,159,0.0,0.0,74,0.00,,---,0.00,VWS V14.00,2013-01-04 17:39:00,
2013-01-04 09:44:00,19.0,12.2,30.32,SSE,159,0.0,0.0,74,0.00,,---,0.00,VWS V14.00,2013-01-04 17:44:00,
2013-01-04 09:49:00,19.3,12.5,30.32,SSE,159,0.0,0.0,74,0.00,,---,0.00,VWS V14.00,2013-01-04 17:49:00,
2013-01-04 09:54:00,20.0,13.2,30.31,SSE,159,0.0,0.0,74,0.00,,---,0.00,VWS V14.00,2013-01-04 17:54:00,
2013-01-04 10:00:00,21.1,14.0,30.31,SSE,159,0.0,0.0,74,0.00,,---,0.00,VWS V14.00,2013-01-04 18:00:00,
2013-01-04 10:09:00,21.0,13.2,30.31,SSE,159,6.0,7.0,72,0.00,,---,0.00,VWS V14.00,2013-01-04 18:09:00,
2013-01-04 10:15:00,20.3,12.9,30.31,SSE,159,3.0,6.0,72,0.00,,---,0.00,VWS V14.00,2013-01-04 18:15:00,
2013-01-04 10:24:00,20.0,12.6,30.30,SSE,159,2.0,6.0,72,0.00,,---,0.00,VWS V14.00,2013-01-04 18:24:00,
2013-01-04 10:29:00,20.0,12.9,30.30,SSE,159,1.0,5.0,74,0.00,,---,0.00,VWS V14.00,2013-01-04 18:29:00,
2013-01-04 10:34:00,20.1,13.0,30.30,SSE,159,5.0,6.0,74,0.00,,---,0.00,VWS V14.00,2013-01-04 18:34:00,
2013-01-04 10:39:00,20.3,13.2,30.30,SSE,159,4.0,6.0,74,0.00,,---,0.00,VWS V14.00,2013-01-04 18:39:00,
2013-01-04 10:45:00,20.6,13.5,30.30,SSE,159,2.0,5.0,74,0.00,,---,0.00,VWS V14.00,2013-01-04 18:45:00,
2013-01-04 10:50:00,21.0,13.6,30.30,SSE,159,1.0,4.0,72,0.00,,---,0.00,VWS V14.00,2013-01-04 18:50:00,
2013-01-04 10:59:00,21.9,14.1,30.29,SSE,159,4.0,4.0,72,0.00,,---,0.00,VWS V14.00,2013-01-04 18:59:00,
2013-01-04 11:05:00,22.1,14.0,30.29,SSE,159,0.0,4.0,70,0.00,,---,0.00,VWS V14.00,2013-01-04 19:05:00,
2013-01-04 11:10:00,22.4,14.3,30.28,SSE,159,0.0,4.0,70,0.00,,---,0.00,VWS V14.00,2013-01-04 19:10:00,
2013-01-04 11:19:00,23.0,14.5,30.28,SSE,159,4.0,5.0,70,0.00,,---,0.00,VWS V14.00,2013-01-04 19:19:00,
2013-01-04 11:24:00,22.9,14.4,30.28,SSE,159,0.0,6.0,70,0.00,,---,0.00,VWS V14.00,2013-01-04 19:24:00,
2013-01-04 11:29:00,23.5,15.0,30.27,SSE,159,2.0,3.0,70,0.00,,---,0.00,VWS V14.00,2013-01-04 19:29:00,
2013-01-04 11:35:00,23.8,15.0,30.27,SSE,159,0.0,5.0,68,0.00,,---,0.00,VWS V14.00,2013-01-04 19:35:00,
2013-01-04 11:44:00,26.0,16.0,30.26,SSE,159,0.0,0.0,66,0.00,,---,0.00,VWS V14.00,2013-01-04 19:44:00,
2013-01-04 11:50:00,26.7,16.0,30.26,SSE,159,0.0,0.0,64,0.00,,---,0.00,VWS V14.00,2013-01-04 19:50:00,
2013-01-04 11:55:00,26.3,15.2,30.26,SSE,159,0.0,0.0,62,0.00,,---,0.00,VWS V14.00,2013-01-04 19:55:00,
2013-01-04 12:04:00,26.0,15.7,30.25,SSE,159,0.0,0.0,64,0.00,,---,0.00,VWS V14.00,2013-01-04 20:04:00,
2013-01-04 12:10:00,26.0,16.0,30.25,SSE,159,0.0,0.0,66,0.00,,---,0.00,VWS V14.00,2013-01-04 20:10:00,
2013-01-04 12:20:00,25.6,16.0,30.24,SSE,159,4.0,6.0,66,0.00,,---,0.00,VWS V14.00,2013-01-04 20:20:00,
2013-01-04 12:25:00,25.8,15.9,30.24,SSE,159,4.0,5.0,66,0.00,,---,0.00,VWS V14.00,2013-01-04 20:25:00,
2013-01-04 12:35:00,26.3,16.3,30.24,SSE,159,0.0,0.0,66,0.00,,---,0.00,VWS V14.00,2013-01-04 20:35:00,
2013-01-04 12:40:00,26.5,16.2,30.23,SSE,159,0.0,0.0,64,0.00,,---,0.00,VWS V14.00,2013-01-04 20:40:00,
2013-01-04 12:45:00,26.6,15.9,30.23,SSE,159,0.0,0.0,64,0.00,,---,0.00,VWS V14.00,2013-01-04 20:45:00,
2013-01-04 12:54:00,27.1,16.4,30.23,SSE,159,0.0,0.0,64,0.00,,---,0.00,VWS V14.00,2013-01-04 20:54:00,
2013-01-04 13:00:00,27.4,16.7,30.23,SSE,159,0.0,0.0,64,0.00,,---,0.00,VWS V14.00,2013-01-04 21:00:00,
2013-01-04 13:09:00,27.5,16.4,30.23,SSE,159,7.0,8.0,62,0.00,,---,0.00,VWS V14.00,2013-01-04 21:09:00,
2013-01-04 13:14:00,27.2,16.8,30.23,SSE,159,2.0,9.0,64,0.00,,---,0.00,VWS V14.00,2013-01-04 21:14:00,
2013-01-04 13:20:00,27.1,16.4,30.23,SSE,159,0.0,9.0,64,0.00,,---,0.00,VWS V14.00,2013-01-04 21:20:00,
2013-01-04 13:30:00,27.2,16.1,30.23,SSE,159,0.0,0.0,62,0.00,,---,0.00,VWS V14.00,2013-01-04 21:30:00,
2013-01-04 13:40:00,27.5,16.4,30.23,SSE,159,0.0,0.0,62,0.00,,---,0.00,VWS V14.00,2013-01-04 21:40:00,
2013-01-04 13:45:00,27.6,16.1,30.23,SSE,159,0.0,0.0,62,0.00,,---,0.00,VWS V14.00,2013-01-04 21:45:00,
2013-01-04 13:50:00,28.0,16.1,30.23,SSE,159,0.0,0.0,60,0.00,,---,0.00,VWS V14.00,2013-01-04 21:50:00,
2013-01-04 14:00:00,29.4,17.4,30.23,SSE,159,0.0,0.0,60,0.00,,---,0.00,VWS V14.00,2013-01-04 22:00:00,
2013-01-04 14:05:00,30.0,16.8,30.23,SSE,159,0.0,0.0,58,0.00,,---,0.00,VWS V14.00,2013-01-04 22:05:00,
2013-01-04 14:15:00,29.7,16.5,30.23,SSE,159,0.0,0.0,58,0.00,,---,0.00,VWS V14.00,2013-01-04 22:15:00,
2013-01-04 14:20:00,29.3,16.2,30.23,SSE,159,0.0,0.0,58,0.00,,---,0.00,VWS V14.00,2013-01-04 22:20:00,
2013-01-04 14:30:00,29.0,16.3,30.23,SSE,159,0.0,0.0,58,0.00,,---,0.00,VWS V14.00,2013-01-04 22:30:00,
2013-01-04 14:35:00,28.8,16.9,30.24,SSE,159,0.0,0.0,60,0.00,,---,0.00,VWS V14.00,2013-01-04 22:35:00,
2013-01-04 14:40:00,28.7,16.8,30.24,SSE,159,0.0,0.0,60,0.00,,---,0.00,VWS V14.00,2013-01-04 22:40:00,
2013-01-04 14:45:00,28.5,17.0,30.24,SSE,159,0.0,0.0,62,0.00,,---,0.00,VWS V14.00,2013-01-04 22:45:00,
2013-01-04 14:50:00,28.3,16.8,30.24,SSE,159,0.0,0.0,62,0.00,,---,0.00,VWS V14.00,2013-01-04 22:50:00,
2013-01-04 14:55:00,28.2,16.3,30.24,SSE,159,0.0,0.0,60,0.00,,---,0.00,VWS V14.00,2013-01-04 22:55:00,
2013-01-04 15:00:00,28.3,16.4,30.24,SSE,159,0.0,0.0,60,0.00,,---,0.00,VWS V14.00,2013-01-04 23:00:00,
2013-01-04 15:10:00,28.8,16.1,30.24,SSE,159,0.0,0.0,58,0.00,,---,0.00,VWS V14.00,2013-01-04 23:10:00,
2013-01-04 15:20:00,29.1,16.4,30.24,SSE,159,0.0,0.0,58,0.00,,---,0.00,VWS V14.00,2013-01-04 23:20:00,
2013-01-04 15:25:00,29.0,15.9,30.24,SSE,159,0.0,0.0,58,0.00,,---,0.00,VWS V14.00,2013-01-04 23:25:00,
2013-01-04 15:30:00,29.0,15.9,30.24,SSE,159,0.0,0.0,58,0.00,,---,0.00,VWS V14.00,2013-01-04 23:30:00,
2013-01-04 15:35:00,28.9,15.8,30.24,SSE,159,0.0,0.0,58,0.00,,---,0.00,VWS V14.00,2013-01-04 23:35:00,
2013-01-04 15:40:00,28.8,15.7,30.24,SSE,159,0.0,0.0,58,0.00,,---,0.00,VWS V14.00,2013-01-04 23:40:00,
2013-01-04 15:45:00,28.8,15.7,30.24,SSE,159,0.0,0.0,58,0.00,,---,0.00,VWS V14.00,2013-01-04 23:45:00,
2013-01-04 15:50:00,28.8,15.7,30.24,SSE,159,0.0,0.0,58,0.00,,---,0.00,VWS V14.00,2013-01-04 23:50:00,
2013-01-04 15:55:00,28.8,16.1,30.24,SSE,159,0.0,0.0,58,0.00,,---,0.00,VWS V14.00,2013-01-04 23:55:00,
2013-01-04 16:00:00,28.8,16.5,30.24,SSE,159,0.0,0.0,60,0.00,,---,0.00,VWS V14.00,2013-01-05 00:00:00,
2013-01-04 16:05:00,28.6,16.3,30.24,SSE,159,0.0,0.0,60,0.00,,---,0.00,VWS V14.00,2013-01-05 00:05:00,
2013-01-04 16:10:00,28.4,16.5,30.24,SSE,159,0.0,0.0,60,0.00,,---,0.00,VWS V14.00,2013-01-05 00:10:00,
2013-01-04 16:15:00,28.5,17.0,30.24,SSE,159,0.0,0.0,62,0.00,,---,0.00,VWS V14.00,2013-01-05 00:15:00,
2013-01-04 16:25:00,28.3,16.8,30.24,SSE,159,0.0,0.0,62,0.00,,---,0.00,VWS V14.00,2013-01-05 00:25:00,
2013-01-04 16:30:00,27.7,16.6,30.24,SSE,159,0.0,0.0,62,0.00,,---,0.00,VWS V14.00,2013-01-05 00:30:00,
2013-01-04 16:35:00,27.0,16.3,30.24,SSE,159,0.0,0.0,64,0.00,,---,0.00,VWS V14.00,2013-01-05 00:35:00,
2013-01-04 16:40:00,26.4,16.4,30.24,SSE,159,0.0,0.0,66,0.00,,---,0.00,VWS V14.00,2013-01-05 00:40:00,
2013-01-04 16:45:00,26.0,16.4,30.25,SSE,159,0.0,0.0,66,0.00,,---,0.00,VWS V14.00,2013-01-05 00:45:00,
2013-01-04 16:50:00,25.6,16.4,30.25,SSE,159,0.0,0.0,68,0.00,,---,0.00,VWS V14.00,2013-01-05 00:50:00,
2013-01-04 16:55:00,25.3,16.4,30.25,SSE,159,0.0,0.0,68,0.00,,---,0.00,VWS V14.00,2013-01-05 00:55:00,
2013-01-04 17:00:00,24.9,16.4,30.24,SSE,159,0.0,0.0,70,0.00,,---,0.00,VWS V14.00,2013-01-05 01:00:00,
2013-01-04 17:05:00,24.6,16.4,30.25,SSE,159,0.0,0.0,70,0.00,,---,0.00,VWS V14.00,2013-01-05 01:05:00,
2013-01-04 17:10:00,24.4,16.2,30.25,SSE,159,0.0,0.0,70,0.00,,---,0.00,VWS V14.00,2013-01-05 01:10:00,
2013-01-04 17:15:00,24.2,16.0,30.25,SSE,159,0.0,0.0,70,0.00,,---,0.00,VWS V14.00,2013-01-05 01:15:00,
2013-01-04 17:20:00,23.9,16.0,30.25,SSE,159,0.0,0.0,72,0.00,,---,0.00,VWS V14.00,2013-01-05 01:20:00,
2013-01-04 17:25:00,23.8,15.9,30.24,SSE,159,0.0,0.0,72,0.00,,---,0.00,VWS V14.00,2013-01-05 01:25:00,
2013-01-04 17:30:00,23.9,16.4,30.24,SSE,159,0.0,0.0,72,0.00,,---,0.00,VWS V14.00,2013-01-05 01:30:00,
2013-01-04 17:35:00,24.0,16.5,30.25,SSE,159,0.0,0.0,72,0.00,,---,0.00,VWS V14.00,2013-01-05 01:35:00,
2013-01-04 17:40:00,23.9,16.4,30.25,SSE,159,0.0,0.0,72,0.00,,---,0.00,VWS V14.00,2013-01-05 01:40:00,
2013-01-04 17:45:00,23.8,16.6,30.25,SSE,159,0.0,0.0,74,0.00,,---,0.00,VWS V14.00,2013-01-05 01:45:00,
2013-01-04 17:50:00,23.6,16.4,30.25,SSE,159,0.0,0.0,74,0.00,,---,0.00,VWS V14.00,2013-01-05 01:50:00,
2013-01-04 17:55:00,23.4,16.2,30.25,SSE,159,0.0,0.0,74,0.00,,---,0.00,VWS V14.00,2013-01-05 01:55:00,
2013-01-04 18:00:00,23.1,16.2,30.25,SSE,159,0.0,0.0,74,0.00,,---,0.00,VWS V14.00,2013-01-05 02:00:00,
2013-01-04 18:05:00,22.9,16.0,30.25,SSE,159,0.0,0.0,74,0.00,,---,0.00,VWS V14.00,2013-01-05 02:05:00,
2013-01-04 18:10:00,22.7,16.1,30.25,SSE,159,0.0,0.0,76,0.00,,---,0.00,VWS V14.00,2013-01-05 02:10:00,
2013-01-04 18:15:00,22.6,16.0,30.25,SSE,159,0.0,0.0,76,0.00,,---,0.00,VWS V14.00,2013-01-05 02:15:00,
2013-01-04 18:20:00,22.6,16.0,30.25,SSE,159,0.0,0.0,76,0.00,,---,0.00,VWS V14.00,2013-01-05 02:20:00,
2013-01-04 18:25:00,22.6,16.0,30.25,SSE,159,0.0,0.0,76,0.00,,---,0.00,VWS V14.00,2013-01-05 02:25:00,
2013-01-04 18:30:00,22.6,16.0,30.25,SSE,159,0.0,0.0,76,0.00,,---,0.00,VWS V14.00,2013-01-05 02:30:00,
2013-01-04 18:35:00,22.6,16.0,30.25,SSE,159,0.0,0.0,76,0.00,,---,0.00,VWS V14.00,2013-01-05 02:35:00,
2013-01-04 18:40:00,22.6,16.0,30.25,SSE,159,0.0,0.0,76,0.00,,---,0.00,VWS V14.00,2013-01-05 02:40:00,
2013-01-04 18:45:00,22.4,15.8,30.25,SSE,159,0.0,0.0,76,0.00,,---,0.00,VWS V14.00,2013-01-05 02:45:00,
2013-01-04 18:50:00,22.5,16.2,30.25,SSE,159,0.0,0.0,76,0.00,,---,0.00,VWS V14.00,2013-01-05 02:50:00,
2013-01-04 18:55:00,22.5,15.9,30.26,SSE,159,0.0,0.0,76,0.00,,---,0.00,VWS V14.00,2013-01-05 02:55:00,
2013-01-04 19:00:00,22.6,16.0,30.25,SSE,159,0.0,0.0,76,0.00,,---,0.00,VWS V14.00,2013-01-05 03:00:00,
2013-01-04 19:05:00,22.7,16.1,30.26,SSE,159,0.0,0.0,76,0.00,,---,0.00,VWS V14.00,2013-01-05 03:05:00,
2013-01-04 19:10:00,22.9,16.3,30.25,SSE,159,0.0,0.0,76,0.00,,---,0.00,VWS V14.00,2013-01-05 03:10:00,
2013-01-04 19:15:00,23.0,16.4,30.25,SSE,159,0.0,0.0,76,0.00,,---,0.00,VWS V14.00,2013-01-05 03:15:00,
2013-01-04 19:20:00,23.0,16.1,30.26,SSE,159,0.0,0.0,74,0.00,,---,0.00,VWS V14.00,2013-01-05 03:20:00,
2013-01-04 19:25:00,22.7,15.8,30.26,SSE,159,0.0,0.0,74,0.00,,---,0.00,VWS V14.00,2013-01-05 03:25:00,
2013-01-04 19:30:00,22.1,15.2,30.25,SSE,159,0.0,0.0,74,0.00,,---,0.00,VWS V14.00,2013-01-05 03:30:00,
2013-01-04 19:35:00,21.3,14.5,30.26,SSE,159,0.0,0.0,74,0.00,,---,0.00,VWS V14.00,2013-01-05 03:35:00,
2013-01-04 19:40:00,20.9,14.4,30.26,SSE,159,0.0,0.0,76,0.00,,---,0.00,VWS V14.00,2013-01-05 03:40:00,
2013-01-04 19:45:00,21.3,14.8,30.26,SSE,159,0.0,0.0,76,0.00,,---,0.00,VWS V14.00,2013-01-05 03:45:00,
2013-01-04 19:50:00,21.3,14.5,30.26,SSE,159,0.0,0.0,74,0.00,,---,0.00,VWS V14.00,2013-01-05 03:50:00,
2013-01-04 19:55:00,21.2,14.4,30.25,SSE,159,0.0,0.0,74,0.00,,---,0.00,VWS V14.00,2013-01-05 03:55:00,
2013-01-04 20:00:00,20.7,13.9,30.25,SSE,159,0.0,0.0,74,0.00,,---,0.00,VWS V14.00,2013-01-05 04:00:00,
2013-01-04 20:05:00,19.8,13.0,30.25,SSE,159,0.0,0.0,74,0.00,,---,0.00,VWS V14.00,2013-01-05 04:05:00,
2013-01-04 20:10:00,19.7,13.5,30.25,SSE,159,0.0,0.0,76,0.00,,---,0.00,VWS V14.00,2013-01-05 04:10:00,
2013-01-04 20:15:00,20.2,14.0,30.25,SSE,159,0.0,0.0,76,0.00,,---,0.00,VWS V14.00,2013-01-05 04:15:00,
2013-01-04 20:20:00,20.1,13.6,30.25,SSE,159,0.0,0.0,76,0.00,,---,0.00,VWS V14.00,2013-01-05 04:20:00,
2013-01-04 20:25:00,20.2,14.0,30.25,SSE,159,0.0,0.0,76,0.00,,---,0.00,VWS V14.00,2013-01-05 04:25:00,
2013-01-04 20:30:00,20.1,13.6,30.25,SSE,159,0.0,0.0,76,0.00,,---,0.00,VWS V14.00,2013-01-05 04:30:00,
2013-01-04 20:35:00,20.2,14.0,30.25,SSE,159,0.0,0.0,76,0.00,,---,0.00,VWS V14.00,2013-01-05 04:35:00,
2013-01-04 20:40:00,20.8,14.6,30.25,SSE,159,0.0,0.0,76,0.00,,---,0.00,VWS V14.00,2013-01-05 04:40:00,
2013-01-04 20:45:00,20.8,14.3,30.26,SSE,159,0.0,0.0,76,0.00,,---,0.00,VWS V14.00,2013-01-05 04:45:00,
2013-01-04 20:50:00,20.1,13.6,30.26,SSE,159,0.0,0.0,76,0.00,,---,0.00,VWS V14.00,2013-01-05 04:50:00,
2013-01-04 20:55:00,20.3,14.1,30.26,SSE,159,0.0,0.0,76,0.00,,---,0.00,VWS V14.00,2013-01-05 04:55:00,
2013-01-04 21:00:00,21.3,15.1,30.26,SSE,159,0.0,0.0,76,0.00,,---,0.00,VWS V14.00,2013-01-05 05:00:00,
2013-01-04 21:05:00,21.8,15.3,30.26,SSE,159,0.0,0.0,76,0.00,,---,0.00,VWS V14.00,2013-01-05 05:05:00,
2013-01-04 21:10:00,22.0,15.5,30.26,SSE,159,0.0,0.0,76,0.00,,---,0.00,VWS V14.00,2013-01-05 05:10:00,
2013-01-04 21:15:00,21.7,15.2,30.26,SSE,159,0.0,0.0,76,0.00,,---,0.00,VWS V14.00,2013-01-05 05:15:00,
2013-01-04 21:20:00,21.4,14.9,30.26,SSE,159,0.0,0.0,76,0.00,,---,0.00,VWS V14.00,2013-01-05 05:20:00,
2013-01-04 21:25:00,21.1,14.6,30.26,SSE,159,0.0,0.0,76,0.00,,---,0.00,VWS V14.00,2013-01-05 05:25:00,
2013-01-04 21:30:00,20.9,14.4,30.26,SSE,159,0.0,0.0,76,0.00,,---,0.00,VWS V14.00,2013-01-05 05:30:00,
2013-01-04 21:35:00,20.5,14.3,30.26,SSE,159,0.0,0.0,76,0.00,,---,0.00,VWS V14.00,2013-01-05 05:35:00,
2013-01-04 21:40:00,20.4,14.2,30.26,SSE,159,0.0,0.0,76,0.00,,---,0.00,VWS V14.00,2013-01-05 05:40:00,
2013-01-04 21:45:00,20.3,14.4,30.26,SSE,159,0.0,0.0,78,0.00,,---,0.00,VWS V14.00,2013-01-05 05:45:00,
2013-01-04 21:55:00,20.2,14.3,30.26,SSE,159,0.0,0.0,78,0.00,,---,0.00,VWS V14.00,2013-01-05 05:55:00,
2013-01-04 22:00:00,20.0,14.1,30.26,SSE,159,0.0,0.0,78,0.00,,---,0.00,VWS V14.00,2013-01-05 06:00:00,
2013-01-04 22:10:00,19.9,14.0,30.27,SSE,159,0.0,0.0,78,0.00,,---,0.00,VWS V14.00,2013-01-05 06:10:00,
2013-01-04 22:15:00,19.7,13.8,30.26,SSE,159,0.0,0.0,78,0.00,,---,0.00,VWS V14.00,2013-01-05 06:15:00,
2013-01-04 22:20:00,19.7,14.1,30.27,SSE,159,0.0,0.0,78,0.00,,---,0.00,VWS V14.00,2013-01-05 06:20:00,
2013-01-04 22:25:00,19.7,14.1,30.27,SSE,159,0.0,0.0,78,0.00,,---,0.00,VWS V14.00,2013-01-05 06:25:00,
2013-01-04 22:30:00,19.0,13.1,30.27,SSE,159,0.0,0.0,78,0.00,,---,0.00,VWS V14.00,2013-01-05 06:30:00,
2013-01-04 22:35:00,18.6,12.8,30.27,SSE,159,0.0,0.0,78,0.00,,---,0.00,VWS V14.00,2013-01-05 06:35:00,
2013-01-04 22:40:00,18.8,13.2,30.27,SSE,159,0.0,0.0,78,0.00,,---,0.00,VWS V14.00,2013-01-05 06:40:00,
2013-01-04 22:45:00,19.0,13.7,30.27,SSE,159,0.0,0.0,80,0.00,,---,0.00,VWS V14.00,2013-01-05 06:45:00,
2013-01-04 22:50:00,19.5,14.2,30.27,SSE,159,0.0,0.0,80,0.00,,---,0.00,VWS V14.00,2013-01-05 06:50:00,
2013-01-04 22:55:00,19.9,14.6,30.27,SSE,159,0.0,0.0,80,0.00,,---,0.00,VWS V14.00,2013-01-05 06:55:00,
2013-01-04 23:00:00,20.2,14.6,30.26,SSE,159,0.0,0.0,78,0.00,,---,0.00,VWS V14.00,2013-01-05 07:00:00,
2013-01-04 23:05:00,20.2,14.6,30.27,SSE,159,0.0,0.0,78,0.00,,---,0.00,VWS V14.00,2013-01-05 07:05:00,
2013-01-04 23:10:00,20.0,14.4,30.26,SSE,159,0.0,0.0,78,0.00,,---,0.00,VWS V14.00,2013-01-05 07:10:00,
2013-01-04 23:15:00,19.7,14.1,30.26,SSE,159,0.0,0.0,78,0.00,,---,0.00,VWS V14.00,2013-01-05 07:15:00,
2013-01-04 23:20:00,19.6,14.0,30.27,SSE,159,0.0,0.0,78,0.00,,---,0.00,VWS V14.00,2013-01-05 07:20:00,
2013-01-04 23:25:00,19.5,13.9,30.26,SSE,159,0.0,0.0,78,0.00,,---,0.00,VWS V14.00,2013-01-05 07:25:00,
2013-01-04 23:30:00,19.2,13.9,30.26,SSE,159,0.0,0.0,80,0.00,,---,0.00,VWS V14.00,2013-01-05 07:30:00,
2013-01-04 23:35:00,19.0,13.7,30.26,SSE,159,0.0,0.0,80,0.00,,---,0.00,VWS V14.00,2013-01-05 07:35:00,
2013-01-04 23:40:00,19.0,13.7,30.26,SSE,159,0.0,0.0,80,0.00,,---,0.00,VWS V14.00,2013-01-05 07:40:00,
2013-01-04 23:45:00,18.9,13.6,30.26,SSE,159,0.0,0.0,80,0.00,,---,0.00,VWS V14.00,2013-01-05 07:45:00,
2013-01-04 23:50:00,18.9,13.9,30.26,SSE,159,0.0,0.0,80,0.00,,---,0.00,VWS V14.00,2013-01-05 07:50:00,
2013-01-04 23:55:00,18.9,13.9,30.26,SSE,159,0.0,0.0,80,0.00,,---,0.00,VWS V14.00,2013-01-05 07:55:00,